[[{"header":{"parameterUnit":"m.s-1","parameterCategory":1,"la1":30.2991,"la2":30.254,"lo1":-89.0895,"lo2":-89.0444,"dy":0.0017,"dx":0.0017,"nx":28,"ny":28,"refTime":"2025-03-06T09:00:00:Z","depth":0,"parameterNumber":2,"parameterNumberName":"U-component_of_WINDS"},"data":[0,0,0,0,0,0,0,0,0,0,0,0,0,0,0,0,0,0,0,0,0,0,0,0,0,0,0,0,0,0,0,0,0,0,0,0,0,0,0,0,0,0,0,0,0,0,0,0,0,0,0,0,0,0,0,0,0,0,1.9716,1.9716,0,1.9798,1.9799,1.98,1.9764,1.9761,1.9759,1.9757,1.9844,1.9848,1.9852,0,0,0,0,0,0,0,0,0,0,0,0,0,1.9525,1.9529,1.9715,1.9717,1.9718,1.9798,1.9799,1.9801,1.9764,1.9761,1.9759,1.9757,1.9843,1.9847,1.9853,0,0,0,0,0,0,0,0,0,0,0,0,0,1.9608,1.953,1.9715,1.9709,1.9709,1.9798,1.9799,1.9801,1.9764,1.9761,1.9758,1.9755,1.9841,1.9847,1.9853,1.9954,0,0,1.9873,1.9875,0,0,0,0,0,0,0,0,1.9603,1.9615,1.9709,1.971,1.971,1.9767,1.9764,1.9852,1.9765,1.9744,1.9757,1.9754,1.9821,1.9829,1.9851,1.9958,1.9961,1.9873,1.9877,1.988,1.9881,0,0,0,0,0,0,0,1.9598,1.9611,1.9748,1.971,1.9711,1.9702,1.971,1.9781,1.9799,1.9745,1.9743,1.9753,1.9821,1.9845,1.9853,1.9963,1.9873,1.9879,1.9882,1.9885,2.0153,2.0156,0,0,0,0,0,0,1.9592,1.9607,1.9746,1.9751,1.9648,1.9708,1.9717,1.9752,1.9798,1.9802,1.9755,1.9751,1.9836,1.9846,1.9856,1.9974,1.988,1.9886,1.9889,2.015,2.0154,2.0157,0,0,0,0,0,0,1.9588,1.9605,1.9742,1.9678,1.9695,1.9714,1.9754,1.9755,1.978,1.9805,1.9808,1.9777,1.9834,1.9847,1.9929,1.9977,1.9888,1.9894,2.0146,2.0151,2.0155,2.0213,0,0,0,0,0,0,1.9583,1.9603,1.9642,1.9679,1.9698,1.9814,1.9757,1.9759,1.979,1.9785,1.9826,1.983,1.9832,1.992,1.9935,1.9984,1.9899,2.0141,2.0148,2.0154,2.0207,2.0219,2.023,0,0,0,0,0,1.9576,1.9656,1.9644,1.9661,1.9747,1.9817,1.9828,1.9828,1.9795,1.9833,1.9849,1.9829,1.9969,1.9928,1.9945,1.9997,2.0138,2.0146,2.0153,2.0201,2.0217,2.0229,0,0,0,0,0,0,1.9625,1.9661,1.9648,1.9742,1.9777,1.9811,1.9859,1.9845,1.989,1.9883,1.9882,1.9892,1.9976,1.9995,1.9949,2.0095,2.0049,2.006,2.0079,2.0094,2.0105,2.0098,1.9904,0,0,0,0,0,1.9646,1.97,1.9729,1.9809,1.9827,1.984,1.9871,1.9868,1.9904,1.9918,1.9941,1.9976,2.0028,2.0062,2.0112,2.021,2.0217,2.0253,2.0265,2.0274,2.0283,2.0334,2.0349,2.0182,2.0182,2.0182,0,0,1.9692,1.9718,1.9752,1.9819,1.9846,1.9901,1.9853,1.9914,1.9954,1.9928,2.0005,2.0023,2.0063,2.0152,2.0193,2.0171,2.0331,2.0284,2.0291,2.0295,2.0343,2.0359,2.0373,2.0187,2.0186,2.0185,0,0,1.9802,1.9828,1.9896,1.9923,1.9963,1.9971,1.9988,2.0024,2.0034,2.0112,2.0092,2.0141,2.0231,2.0259,2.0285,2.0404,2.0386,2.042,2.048,2.0529,2.0542,2.0554,2.0594,2.0609,2.043,2.043,2.043,0,1.9853,1.9935,1.9934,1.9995,2.0025,2.0002,2.0071,2.0097,2.0152,2.0172,2.0146,2.0257,2.0282,2.0377,2.0405,2.0428,2.0446,2.0415,2.0541,2.0552,2.0563,2.0601,2.0617,2.0434,2.0433,2.0433,2.0433,0,1.9995,2.0052,2.0103,2.0154,2.0189,2.0255,2.0262,2.0298,2.0292,2.0303,2.0381,2.0411,2.0464,2.0487,2.0482,2.058,2.0565,2.054,2.0493,2.0583,2.0618,2.0633,2.0439,2.0438,2.0437,2.0436,0,0,2.0139,2.0187,2.0205,2.0227,2.0269,2.0313,2.0376,2.0428,2.0457,2.0496,2.0548,2.0623,2.06,2.063,2.0628,2.0671,2.076,2.0641,2.0642,2.066,2.0868,2.0884,2.0901,2.075,2.0752,2.0755,2.0863,0,2.025,2.036,2.036,2.0461,2.0513,2.0491,2.0546,2.0577,2.0589,2.0634,2.0647,2.07,2.0666,2.0683,2.0726,2.0741,2.0802,2.0733,2.0797,2.0799,2.0785,2.092,2.0939,2.104,2.0878,2.088,2.0882,0,2.0395,2.0435,2.0542,2.0573,2.0595,2.0645,2.069,2.0734,2.0769,2.0774,2.0806,2.0797,2.0861,2.0813,2.09,2.0853,2.0879,2.089,2.0894,2.0898,2.0844,2.0926,2.1073,2.1087,2.0904,2.0902,2.0901,0,2.0485,2.0567,2.0641,2.0661,2.07,2.0735,2.0753,2.0785,2.0815,2.0855,2.0874,2.0922,2.0948,2.0985,2.0989,2.0954,2.1075,2.1028,2.108,2.108,2.1105,2.1103,2.1255,2.1126,2.1125,2.1125,2.1125,0,2.0608,2.0674,2.0681,2.0727,2.0798,2.0797,2.0869,2.0884,2.0912,2.0959,2.0944,2.0989,2.0992,2.1038,2.1041,2.1111,2.1123,2.1128,2.1128,2.1129,2.1128,2.1144,2.1137,2.1129,2.1128,2.1128,2.1127,0,2.0721,2.073,2.0808,2.0838,2.0847,2.0899,2.0925,2.0967,2.0977,2.1036,2.105,2.1065,2.1118,2.1126,2.1188,2.119,2.1273,2.1267,2.1261,2.1259,2.131,2.1304,2.1476,2.1498,2.1356,2.1358,2.1359,0,2.0798,2.0848,2.0883,2.0913,2.0932,2.0981,2.1011,2.1012,2.1044,2.1086,2.1123,2.1174,2.1214,2.1299,2.1316,2.1363,2.1356,2.1413,2.1363,2.1361,2.1354,2.135,2.1354,2.1422,2.1424,2.1425,2.1426,0,2.0933,2.0934,2.0978,2.1023,2.1059,2.1094,2.1128,2.1153,2.1158,2.1194,2.1247,2.1279,2.1341,2.1391,2.1437,2.1456,2.1442,2.1442,2.1456,2.1456,2.1449,2.1451,2.1285,2.1438,2.1437,2.1436,2.1435,2.1435,2.1029,2.1071,2.1101,2.115,2.1175,2.1206,2.1246,2.126,2.1304,2.1354,2.1352,2.141,2.1441,2.1502,2.1523,2.1568,2.1549,2.157,2.1575,2.158,2.1583,2.1444,2.1577,2.1577,2.1576,2.1576,2.1576,0,2.1161,2.1179,2.1224,2.127,2.1308,2.1291,2.1326,2.1359,2.141,2.144,2.1479,2.1539,2.1587,2.1607,2.1654,2.1686,2.1681,2.1698,2.1695,2.1699,2.1599,2.1581,2.1702,2.1702,2.1702,2.1702,2.1702,2.1702,2.1234,2.1303,2.1307,2.1388,2.1406,2.1461,2.1483,2.1511,2.1534,2.1601,2.1641,2.1653,2.1679,2.1727,2.177,2.1775,2.1792,2.1812,2.1813,2.1719,2.1706,2.1694,2.1677,2.1816,2.1816,2.1909,2.191,2.1911]},{"header":{"parameterUnit":"m.s-1","parameterCategory":1,"la1":30.2991,"la2":30.254,"lo1":-89.0895,"lo2":-89.0444,"dy":0.0017,"dx":0.0017,"nx":28,"ny":28,"refTime":"2025-03-06T09:00:00:Z","depth":0,"parameterNumber":3,"parameterNumberName":"V-component_of_WINDS"},"data":[0,0,0,0,0,0,0,0,0,0,0,0,0,0,0,0,0,0,0,0,0,0,0,0,0,0,0,0,0,0,0,0,0,0,0,0,0,0,0,0,0,0,0,0,0,0,0,0,0,0,0,0,0,0,0,0,0,0,1.8186,1.8186,0,1.8177,1.8177,1.8177,1.8136,1.8135,1.8134,1.8133,1.8123,1.8123,1.8124,0,0,0,0,0,0,0,0,0,0,0,0,0,1.8165,1.8166,1.8186,1.8186,1.8186,1.8177,1.8177,1.8177,1.8136,1.8135,1.8134,1.8133,1.8122,1.8123,1.8124,0,0,0,0,0,0,0,0,0,0,0,0,0,1.8167,1.8166,1.8186,1.8165,1.8163,1.8177,1.8177,1.8177,1.8137,1.8135,1.8134,1.8132,1.8122,1.8123,1.8124,1.8158,0,0,1.8127,1.8127,0,0,0,0,0,0,0,0,1.8167,1.8168,1.8168,1.8166,1.8164,1.8156,1.8165,1.817,1.8137,1.8146,1.8133,1.8132,1.8135,1.8135,1.8136,1.8157,1.8157,1.8127,1.8127,1.8128,1.8128,0,0,0,0,0,0,0,1.8167,1.8168,1.8182,1.8168,1.8166,1.8154,1.8153,1.8166,1.8149,1.8146,1.8143,1.8142,1.8133,1.8135,1.8135,1.8156,1.8127,1.8127,1.8128,1.8128,1.8201,1.8203,0,0,0,0,0,0,1.817,1.8168,1.8183,1.8182,1.8162,1.8156,1.8154,1.816,1.8148,1.8145,1.8143,1.814,1.8134,1.8134,1.8135,1.8171,1.8128,1.8128,1.8129,1.82,1.8202,1.8203,0,0,0,0,0,0,1.817,1.8172,1.8183,1.8174,1.8175,1.8158,1.8164,1.8161,1.8162,1.8147,1.8143,1.8149,1.8133,1.8134,1.8152,1.8171,1.8129,1.813,1.8198,1.8201,1.8203,1.8246,0,0,0,0,0,0,1.8169,1.8172,1.8186,1.8175,1.8176,1.8201,1.8166,1.8162,1.8164,1.816,1.8151,1.8148,1.8132,1.8151,1.8152,1.8171,1.813,1.8197,1.8199,1.8202,1.8243,1.825,1.8255,0,0,0,0,0,1.8169,1.8199,1.8187,1.8189,1.8192,1.8202,1.8203,1.8185,1.8166,1.8179,1.8168,1.8148,1.8168,1.8153,1.8155,1.8174,1.8195,1.8199,1.8202,1.824,1.8248,1.8255,0,0,0,0,0,0,1.8212,1.8197,1.8183,1.8211,1.8208,1.8196,1.8211,1.8194,1.8196,1.8192,1.8169,1.8167,1.8188,1.8183,1.8166,1.8204,1.8178,1.8182,1.8207,1.8215,1.8221,1.8221,1.8131,0,0,0,0,0,1.8225,1.8235,1.8221,1.8246,1.8246,1.8229,1.8233,1.8219,1.8215,1.8214,1.8204,1.8201,1.8206,1.821,1.8214,1.8242,1.8238,1.8256,1.8262,1.8267,1.827,1.8282,1.8289,1.8214,1.8214,1.8214,0,0,1.8251,1.8244,1.8252,1.8255,1.8251,1.8261,1.8228,1.8241,1.8247,1.8215,1.8231,1.8224,1.8219,1.8241,1.8251,1.8237,1.829,1.8271,1.8276,1.8276,1.8286,1.8293,1.83,1.8216,1.8216,1.8215,0,0,1.8304,1.8301,1.832,1.8317,1.8312,1.83,1.8305,1.8294,1.8288,1.8304,1.8279,1.8286,1.8297,1.8293,1.8292,1.8341,1.8322,1.8343,1.8375,1.8386,1.8392,1.8397,1.8413,1.8419,1.8346,1.8346,1.8347,0,1.8338,1.8352,1.8333,1.8346,1.8347,1.8318,1.8337,1.8334,1.833,1.8331,1.8316,1.8327,1.8321,1.8341,1.8353,1.8354,1.8357,1.8344,1.8393,1.8398,1.8403,1.8417,1.8423,1.8349,1.8349,1.8348,1.8348,0,1.8392,1.8403,1.8419,1.8416,1.8418,1.8435,1.8416,1.8421,1.8406,1.8395,1.841,1.8402,1.8403,1.8407,1.8393,1.8424,1.8416,1.8398,1.8371,1.8413,1.8426,1.8431,1.8353,1.8352,1.8351,1.835,0,0,1.8473,1.8457,1.8463,1.846,1.8451,1.8458,1.8472,1.8473,1.8477,1.8475,1.8484,1.8492,1.8475,1.8474,1.8459,1.847,1.8506,1.845,1.8449,1.8459,1.8537,1.855,1.8557,1.8493,1.8494,1.8495,1.8537,0,1.8522,1.8545,1.8527,1.8553,1.856,1.8532,1.8544,1.8539,1.8528,1.8533,1.8521,1.8526,1.8504,1.8503,1.8512,1.85,1.8521,1.8497,1.85,1.8501,1.8502,1.8564,1.8579,1.8619,1.8542,1.8543,1.8544,0,1.8583,1.8583,1.8609,1.8596,1.8599,1.861,1.8607,1.8613,1.8605,1.8597,1.8595,1.8577,1.8587,1.8562,1.8575,1.8558,1.8559,1.8553,1.8554,1.8553,1.8524,1.8563,1.8631,1.8637,1.8552,1.8551,1.8551,0,1.8637,1.8643,1.8659,1.8658,1.8644,1.8651,1.8646,1.8637,1.8638,1.8636,1.8636,1.8635,1.8634,1.8634,1.8615,1.8598,1.8629,1.8603,1.8621,1.8622,1.8629,1.8628,1.8696,1.8631,1.8631,1.8631,1.8631,0,1.8693,1.871,1.8683,1.8693,1.871,1.8688,1.8705,1.8697,1.8689,1.8695,1.8671,1.8677,1.8652,1.8655,1.864,1.8652,1.8653,1.8645,1.8641,1.8647,1.8647,1.8646,1.8642,1.8632,1.8632,1.8632,1.8632,0,1.8756,1.8739,1.8754,1.8739,1.8735,1.8749,1.8735,1.8742,1.873,1.8738,1.8739,1.8719,1.8721,1.8702,1.8701,1.8691,1.8709,1.8701,1.8712,1.8709,1.8728,1.8725,1.8796,1.8803,1.8735,1.8736,1.8736,0,1.8792,1.8804,1.879,1.8792,1.8788,1.8793,1.8793,1.8771,1.8772,1.8763,1.8772,1.8772,1.8771,1.8775,1.876,1.8758,1.8749,1.8773,1.8748,1.8753,1.8747,1.8746,1.8746,1.8778,1.8779,1.878,1.8781,0,1.8858,1.8848,1.885,1.8848,1.8849,1.8847,1.8843,1.8846,1.8822,1.8824,1.8826,1.8825,1.8823,1.8823,1.8818,1.8811,1.8791,1.8789,1.8792,1.8798,1.8803,1.8799,1.8725,1.8787,1.8786,1.8786,1.8786,1.8785,1.8907,1.8916,1.8906,1.8909,1.8903,1.8899,1.8905,1.8893,1.8894,1.8891,1.8877,1.8881,1.8871,1.8862,1.8857,1.8858,1.8846,1.8852,1.8853,1.8855,1.8858,1.8804,1.8857,1.8857,1.8857,1.8857,1.8857,0,1.897,1.8962,1.8964,1.8959,1.896,1.8942,1.8935,1.8937,1.8941,1.8934,1.8933,1.8934,1.8933,1.8917,1.8914,1.8918,1.8909,1.8918,1.8917,1.8915,1.887,1.8866,1.8925,1.8925,1.8925,1.8925,1.8925,1.8925,1.9003,1.9016,1.9005,1.9013,1.9005,1.9009,1.9006,1.9002,1.8996,1.8998,1.8997,1.8987,1.8975,1.8971,1.8968,1.8964,1.8963,1.8975,1.8967,1.8925,1.8918,1.8912,1.8908,1.8975,1.8975,1.9011,1.9012,1.9012]}]]